User: anonymous   Login
Location: Aiyekoto
(8.4333°N, 4.3667°E)
Time: 10:33:37
(UTC+00:00)
Language:

Tiros 1 - Orbit

View from above orbital plane
View from above orbital plane
View from above satellite
View from above satellite

Ground track
Ground track

The orbit data is extracted from the following two-line orbital elements,

1    29U 60002B   20270.17418116 -.00000095  00000-0  16904-4 0  9998
2    29  48.3794 193.2802 0024582 302.9999  56.8551 14.74372781233524
Epoch (UTC): 26 September 2020 04:10:49
Eccentricity: 0.0024582
inclination: 48.3794°
perigee height: 630 km
apogee height: 664 km
right ascension of ascending node: 193.2802°
argument of perigee: 302.9999°
revolutions per day: 14.74372781
mean anomaly at epoch: 56.8551°
orbit number at epoch: 23352

The dashed part of the orbit path shows where the satellite is in the earth's shadow,  

DLR